Location: Huntsville
(41.2590°N, 111.7678°W)
Time: 03:04:50
(UTC+00:00)

Explorer 7 - Visible Passes

Search period start: 13 June 2021 00:00
Search period end: 23 June 2021 00:00
Orbit: 484 x 677 km, 50.3° (Epoch: 12 June)

Date Brightness Start Highest point End Pass type
(mag) Time Alt. Az. Time Alt. Az. Time Alt. Az.
13 Jun 9.2 05:54:23 15° E 05:54:23 15° E 05:55:24 10° ENE visible
13 Jun 7.6 07:30:35 47° W 07:31:38 60° NNW 07:36:12 10° NE visible
13 Jun 9.0 09:08:49 10° WNW 09:12:50 27° N 09:16:41 10° NE visible
13 Jun 9.0 10:50:22 10° NW 10:54:21 29° NNE 10:58:06 10° ENE visible
14 Jun 8.0 05:56:58 35° E 05:56:58 35° E 06:00:00 10° ENE visible
14 Jun 8.1 07:33:06 20° W 07:36:05 45° NNW 07:40:32 10° NE visible
14 Jun 9.2 09:13:31 10° WNW 09:17:27 26° N 09:21:12 10° NE visible
14 Jun 8.7 10:54:46 10° NW 10:58:55 35° NNE 11:02:49 10° E visible
15 Jun 9.3 04:22:17 10° E 04:22:17 10° E 04:22:20 10° E visible
15 Jun 7.0 05:58:16 44° SW 05:59:43 74° SE 06:04:27 10° ENE visible
15 Jun 8.6 07:36:10 10° W 07:40:37 36° NNW 07:44:52 10° NE visible
15 Jun 9.2 09:18:09 10° NW 09:22:05 26° N 09:25:49 10° ENE visible
15 Jun 8.2 10:59:06 10° NW 11:03:27 44° NNE 11:07:30 10° E visible
16 Jun 8.3 04:20:01 10° S 04:23:50 23° SE 04:27:37 10° E visible
16 Jun 7.2 05:59:11 10° WSW 06:04:05 78° NNW 06:08:49 10° NE visible
16 Jun 9.0 07:40:55 10° WNW 07:45:10 31° NNW 07:49:16 10° NE visible
16 Jun 9.2 09:22:42 10° NW 09:26:42 27° N 09:30:31 10° ENE visible
16 Jun 7.6 11:03:25 10° NW 11:07:54 61° NNE 11:12:05 10° ESE visible
17 Jun 7.7 04:23:34 10° SSW 04:28:00 35° SE 04:32:23 10° ENE visible
17 Jun 7.8 06:03:41 10° WSW 06:08:29 56° NNW 06:13:09 10° NE visible
17 Jun 9.2 07:45:39 10° WNW 07:49:46 28° N 07:53:44 10° NE visible
17 Jun 8.9 09:27:08 10° NW 09:31:18 31° NNE 09:35:15 10° ENE visible
17 Jun 7.0 11:07:46 10° WNW 11:12:17 89° NNE 11:16:31 10° SE visible
18 Jun 7.3 04:27:28 10° SW 04:32:14 54° SE 04:36:56 10° ENE visible
18 Jun 8.4 06:08:19 10° W 06:12:58 43° NNW 06:17:29 10° NE visible
18 Jun 9.3 07:50:20 10° WNW 07:54:23 26° N 07:58:17 10° NE visible
18 Jun 8.6 09:31:31 10° NW 09:35:52 38° NNE 09:39:58 10° E visible
18 Jun 7.0 11:12:10 10° WNW 11:16:37 60° SW 11:20:44 10° SE visible
19 Jun 7.1 04:31:37 10° SW 04:36:32 81° SE 04:41:22 10° ENE visible
19 Jun 8.8 06:13:01 10° W 06:17:29 35° NNW 06:21:50 10° NE visible
19 Jun 9.2 07:54:56 10° NW 07:59:01 27° N 08:02:54 10° ENE visible
19 Jun 8.0 09:35:51 10° NW 09:40:22 49° NNE 09:44:37 10° E visible
19 Jun 7.4 11:16:42 10° WNW 11:20:51 37° SW 11:24:44 10° SSE visible
20 Jun 7.5 04:35:59 10° WSW 04:40:53 72° NNW 04:45:43 10° NE visible
20 Jun 9.1 06:17:45 10° WNW 06:22:04 30° NNW 06:26:14 10° NE visible
20 Jun 9.1 07:59:27 10° NW 08:03:38 29° N 08:07:37 10° ENE visible
20 Jun 7.3 09:40:11 10° NW 09:44:49 68° NNE 09:49:09 10° ESE visible
20 Jun 8.0 11:21:26 10° W 11:24:59 23° SW 11:28:23 10° S visible
21 Jun 8.1 04:40:31 10° WSW 04:45:19 53° NNW 04:50:03 10° NE visible
21 Jun 9.3 06:22:29 10° WNW 06:26:40 28° N 06:30:43 10° NE visible
21 Jun 8.8 08:03:53 10° NW 08:08:13 33° NNE 08:12:20 10° E visible
21 Jun 6.9 09:44:32 10° WNW 09:49:11 83° SSW 09:53:32 10° SE visible
22 Jun 8.6 04:45:10 10° W 04:49:48 41° NNW 04:54:23 10° NE visible
22 Jun 9.3 06:27:09 10° WNW 06:31:17 27° N 06:35:18 10° ENE visible
22 Jun 8.4 08:08:15 10° NW 08:12:46 41° NNE 08:17:02 10° E visible
22 Jun 7.0 09:48:57 10° WNW 09:53:29 54° SW 09:57:42 10° SE visible
